User: anonymous   Login
Location: Croydon
(51.3762°N, 0.0982°W)
Time: 14:54:08
(UTC+01:00)
Language:

STRAND 1 - Orbit

View from above orbital plane
View from above orbital plane
View from above satellite
View from above satellite

Ground track
Ground track

The orbit data is extracted from the following two-line orbital elements,

1 39090U 13009E   19115.12375741  .00000026  00000-0  24130-4 0  9993
2 39090  98.4941 321.9815 0010386  90.9354 269.3022 14.35079531322565
Epoch (UTC): 25 April 2019 02:58:12
Eccentricity: 0.0010386
inclination: 98.4941°
perigee height: 767 km
apogee height: 782 km
right ascension of ascending node: 321.9815°
argument of perigee: 90.9354°
revolutions per day: 14.35079531
mean anomaly at epoch: 269.3022°
orbit number at epoch: 32256

The dashed part of the orbit path shows where the satellite is in the earth's shadow,  

DLR